TDRS 3

Last updated on Wed Jul 02 2025 00:02:38 GMT+0000 (Coordinated Universal Time)

1 19548U 88091B 25182.23175675 -.00000303 00000+0 00000+0 0 9992 2 19548 12.8690 343.3343 0035777 346.1828 344.7255 1.00271563121862
UTC large
Height (km)
Speed (km/s)
/
Latitude / Longitude
Inclination (degrees)
Orbital Period (minutes)
Azimuth
Elevation
Range (km)
Doppler Factor

Next 0 passes for location: London (51.5072 / 0.1276)

Sorry there are no passes over London.